{"data":{"norad_id":36032,"epoch":"2026-05-25T04:12:38.752128Z","epoch_age_seconds":73977,"freshness":"FRESH","line1":"1 36032U 09058A   26145.17544852  .00000069  00000+0  00000+0 0  9993","line2":"2 36032   0.0720  66.4798 0005079 327.0470 329.4072  1.00273406 60689","mean_motion":1.00273406,"eccentricity":0.0005079,"inclination_deg":0.072,"raan_deg":66.4798,"arg_perigee_deg":327.047,"mean_anomaly_deg":329.4072,"bstar":0,"rev_number":6068,"period_min":1436.0736883716,"perigee_km":35764.725305605,"apogee_km":35807.555778732,"semimajor_km":42164.277542168,"source":"CELESTRAK","updated_at":"2026-05-25T13:38:14.503080Z"}}